When you browse on this site, cookies collect data to enhance your experience and personalize the content and advertising you see.
Visit our Privacy Policy to learn more. By continuing to use the site, you agree to this use of cookies and data.
  • In Latvia
  • List of Countries
  • For 7 days
  • Water Temperature
  • Weather Map
  • Weather Widgets
  • user-avatar
    Login

    Hourly Weather Kitzbuhel

    Today, 24 January, Friday

    Time Temperature Precipitation Wind Pressure Humidity
    00:00 -1°C° 0 mm 2 mps 681 mmHg 56%
    01:00 -1°C° 0 mm 2 mps 681 mmHg 55%
    02:00 -1°C° 0 mm 2 mps 681 mmHg 55%
    03:00 -1°C° 0 mm 2 mps 681 mmHg 55%
    04:00 -1°C° 0 mm 2 mps 680 mmHg 54%
    05:00 -1°C° 0 mm 2 mps 680 mmHg 54%
    06:00 -1°C° 0 mm 2 mps 680 mmHg 53%
    07:00 -1°C° 0 mm 2 mps 680 mmHg 53%
    08:00 +2°C° 0 mm 1 mps 681 mmHg 57%
    09:00 +3°C° 0 mm 1 mps 681 mmHg 61%
    10:00 +5°C° 0 mm 1 mps 681 mmHg 64%
    11:00 +5°C° 0 mm 1 mps 681 mmHg 71%
    12:00 +6°C° 0 mm 1 mps 681 mmHg 78%
    13:00 +6°C° 0 mm 0 mps 680 mmHg 85%
    14:00 +5°C° 0 mm 0 mps 680 mmHg 81%
    15:00 +5°C° 0 mm 0 mps 680 mmHg 77%
    16:00 +4°C° 0 mm 0 mps 679 mmHg 73%
    17:00 +4°C° 0 mm 1 mps 679 mmHg 69%
    18:00 +3°C° 0 mm 1 mps 679 mmHg 66%
    19:00 +1°C° 0 mm 2 mps 679 mmHg 63%
    20:00 +2°C° 0 mm 1 mps 679 mmHg 63%
    21:00 +2°C° 0 mm 1 mps 679 mmHg 63%
    22:00 +1°C° 0 mm 1 mps 680 mmHg 64%
    23:00 +1°C° 0 mm 1 mps 679 mmHg 64%

    Tomorrow, 25 January, Saturday

    Time Temperature Precipitation Wind Pressure Humidity
    00:00 +1°C° 0 mm 1 mps 679 mmHg 64%
    01:00 +1°C° 0 mm 1 mps 679 mmHg 65%
    02:00 +1°C° 0 mm 1 mps 679 mmHg 65%
    03:00 +1°C° 0 mm 1 mps 678 mmHg 65%
    04:00 +1°C° 0 mm 1 mps 678 mmHg 65%
    05:00 0°C° 0 mm 1 mps 678 mmHg 65%
    06:00 0°C° 0 mm 1 mps 678 mmHg 66%
    07:00 0°C° 0 mm 1 mps 678 mmHg 66%
    08:00 +1°C° 0 mm 1 mps 678 mmHg 68%
    09:00 +2°C° 0 mm 1 mps 679 mmHg 70%
    10:00 +2°C° 0 mm 0 mps 679 mmHg 72%
    11:00 +3°C° 0 mm 0 mps 679 mmHg 76%
    12:00 +4°C° 0 mm 0 mps 679 mmHg 79%
    13:00 +4°C° 0 mm 0 mps 678 mmHg 83%
    14:00 +4°C° 0 mm 0 mps 678 mmHg 82%
    15:00 +3°C° 0 mm 0 mps 678 mmHg 81%
    16:00 +3°C° 0 mm 0 mps 678 mmHg 81%
    17:00 +2°C° 0 mm 0 mps 678 mmHg 79%
    18:00 +1°C° 0 mm 0 mps 678 mmHg 78%
    19:00 +2°C° 0 mm 1 mps 678 mmHg 77%
    20:00 +2°C° 0 mm 1 mps 678 mmHg 76%
    21:00 +1°C° 0 mm 1 mps 678 mmHg 75%
    22:00 +1°C° 0 mm 1 mps 678 mmHg 75%
    23:00 +1°C° 0 mm 1 mps 678 mmHg 74%

    Day after tomorrow, 26 January, Sunday

    Time Temperature Precipitation Wind Pressure Humidity
    00:00 +1°C° 0 mm 1 mps 677 mmHg 74%
    01:00 +1°C° 0 mm 1 mps 677 mmHg 73%
    02:00 +1°C° 0 mm 1 mps 677 mmHg 73%
    03:00 0°C° 0 mm 1 mps 677 mmHg 72%
    04:00 0°C° 0 mm 1 mps 677 mmHg 72%
    05:00 0°C° 0 mm 1 mps 677 mmHg 72%
    06:00 0°C° 0 mm 1 mps 677 mmHg 72%
    07:00 +1°C° 0 mm 1 mps 677 mmHg 72%
    08:00 +2°C° 0 mm 1 mps 677 mmHg 73%
    09:00 +3°C° 0 mm 1 mps 677 mmHg 74%
    10:00 +3°C° 0 mm 0 mps 678 mmHg 75%
    11:00 +3°C° 0 mm 0 mps 678 mmHg 78%
    12:00 +4°C° 0 mm 0 mps 677 mmHg 81%
    13:00 +4°C° 0 mm 0 mps 677 mmHg 83%
    14:00 +4°C° 0 mm 0 mps 677 mmHg 83%
    15:00 +3°C° 0 mm 0 mps 676 mmHg 84%
    16:00 +3°C° 0 mm 0 mps 676 mmHg 84%
    17:00 +2°C° 0 mm 0 mps 676 mmHg 81%
    18:00 +2°C° 0 mm 1 mps 676 mmHg 79%
    19:00 +1°C° 0 mm 1 mps 676 mmHg 77%
    20:00 +1°C° 0 mm 1 mps 676 mmHg 76%
    21:00 +1°C° 0 mm 1 mps 676 mmHg 75%
    22:00 0°C° 0 mm 1 mps 676 mmHg 74%
    23:00 0°C° 0 mm 1 mps 676 mmHg 73%

    27 January, Monday

    Time Temperature Precipitation Wind Pressure Humidity
    00:00 0°C° 0 mm 1 mps 676 mmHg 72%
    01:00 0°C° 0 mm 1 mps 676 mmHg 72%
    02:00 0°C° 0 mm 1 mps 676 mmHg 72%
    03:00 0°C° 0 mm 1 mps 675 mmHg 72%
    04:00 0°C° 0 mm 1 mps 675 mmHg 72%
    05:00 0°C° 0 mm 1 mps 675 mmHg 73%
    06:00 0°C° 0 mm 1 mps 675 mmHg 73%
    07:00 0°C° 0 mm 1 mps 675 mmHg 74%
    08:00 +1°C° 0 mm 1 mps 675 mmHg 74%
    09:00 +2°C° 0 mm 1 mps 676 mmHg 74%
    10:00 +3°C° 0 mm 1 mps 676 mmHg 74%
    11:00 +4°C° 0 mm 1 mps 675 mmHg 77%
    12:00 +3°C° 0 mm 0 mps 675 mmHg 79%
    13:00 +4°C° 0 mm 0 mps 675 mmHg 81%
    14:00 +5°C° 0 mm 1 mps 674 mmHg 81%
    15:00 +4°C° 0 mm 1 mps 674 mmHg 80%
    16:00 +4°C° 0 mm 1 mps 674 mmHg 80%
    17:00 +3°C° 0 mm 1 mps 673 mmHg 79%
    18:00 +1°C° 0 mm 2 mps 673 mmHg 77%
    19:00 -1°C° 0 mm 2 mps 673 mmHg 76%
    20:00 -1°C° 0 mm 2 mps 673 mmHg 76%
    21:00 -1°C° 0 mm 3 mps 672 mmHg 77%
    22:00 -1°C° 0 mm 3 mps 672 mmHg 77%
    23:00 -1°C° 0 mm 3 mps 671 mmHg 77%

    28 January, Tuesday

    Time Temperature Precipitation Wind Pressure Humidity
    00:00 -1°C° 0 mm 3 mps 671 mmHg 78%
    01:00 -1°C° 0 mm 3 mps 670 mmHg 79%
    02:00 -1°C° 0 mm 3 mps 669 mmHg 79%
    03:00 -1°C° 0 mm 3 mps 668 mmHg 79%
    04:00 -1°C° 0 mm 3 mps 667 mmHg 79%
    05:00 -2°C° 0 mm 4 mps 667 mmHg 78%
    06:00 -2°C° 0 mm 4 mps 667 mmHg 77%
    07:00 -2°C° 0 mm 4 mps 666 mmHg 76%
    08:00 0°C° 0 mm 3 mps 667 mmHg 78%
    09:00 0°C° 0 mm 3 mps 667 mmHg 80%
    10:00 +2°C° 0 mm 2 mps 667 mmHg 82%
    11:00 +2°C° 0.2 mm 2 mps 667 mmHg 85%
    12:00 +4°C° 0.2 mm 1 mps 667 mmHg 87%
    13:00 +4°C° 0.2 mm 1 mps 667 mmHg 90%
    14:00 +3°C° 0.5 mm 1 mps 666 mmHg 92%
    15:00 +3°C° 0.5 mm 1 mps 666 mmHg 95%
    16:00 +2°C° 0.5 mm 1 mps 666 mmHg 97%
    17:00 +2°C° 1 mm 1 mps 667 mmHg 97%
    18:00 +1°C° 1 mm 2 mps 668 mmHg 96%
    19:00 -1°C° 1 mm 2 mps 668 mmHg 96%
    20:00 -2°C° 0.3 mm 2 mps 669 mmHg 94%
    21:00 -3°C° 0.3 mm 2 mps 669 mmHg 93%
    22:00 -2°C° 0.3 mm 1 mps 669 mmHg 91%
    23:00 -4°C° 0 mm 2 mps 669 mmHg 87%

    29 January, Wednesday

    Time Temperature Precipitation Wind Pressure Humidity
    00:00 -4°C° 0 mm 2 mps 669 mmHg 83%
    01:00 -4°C° 0 mm 2 mps 669 mmHg 79%
    02:00 -4°C° 0 mm 2 mps 669 mmHg 76%
    03:00 -4°C° 0 mm 3 mps 668 mmHg 73%
    04:00 -4°C° 0 mm 3 mps 668 mmHg 70%
    05:00 -4°C° 0 mm 3 mps 668 mmHg 68%
    06:00 -2°C° 0 mm 3 mps 668 mmHg 67%
    07:00 -2°C° 0 mm 3 mps 667 mmHg 65%
    08:00 -1°C° 0 mm 3 mps 668 mmHg 67%
    09:00 +1°C° 0 mm 2 mps 669 mmHg 68%
    10:00 +2°C° 0 mm 2 mps 669 mmHg 69%
    11:00 +2°C° 0.4 mm 2 mps 669 mmHg 75%
    12:00 +3°C° 0.4 mm 1 mps 669 mmHg 80%
    13:00 +3°C° 0.4 mm 1 mps 669 mmHg 86%
    14:00 +2°C° 0.6 mm 1 mps 670 mmHg 89%
    15:00 +2°C° 0.6 mm 1 mps 670 mmHg 93%
    16:00 +2°C° 0.6 mm 1 mps 670 mmHg 96%
    17:00 +1°C° 0.5 mm 1 mps 670 mmHg 96%
    18:00 +1°C° 0.5 mm 1 mps 671 mmHg 95%
    19:00 +1°C° 0.5 mm 1 mps 671 mmHg 94%
    20:00 +1°C° 0.2 mm 1 mps 671 mmHg 92%
    21:00 0°C° 0.2 mm 1 mps 671 mmHg 90%
    22:00 -2°C° 0.2 mm 2 mps 671 mmHg 88%
    23:00 -2°C° 0 mm 2 mps 671 mmHg 86%
    Show more